GEFSNGP_con_cape1000_156.txt.gz
Probability
0 0 0 0 0 0 0 0 0 6 10 13 13 35 42 52 65 74 74 71 74 81 77 77 71 74 68 65 74 74 68 61 55 68 58 61 58 42 45 42 35 35 35 35
0 0 0 0 0 0 0 0 3 3 10 23 35 35 58 55 65 68 68 68 65 77 81 77 74 71 74 68 71 74 68 61 58 55 55 52 52 52 48 45 39 32 19 19
0 0 0 0 0 0 0 3 0 0 19 29 35 42 58 52 65 61 68 65 65 68 77 81 71 81 71 71 68 68 65 55 55 52 45 45 42 45 48 45 35 29 23 23
0 0 0 0 0 0 3 6 6 23 29 39 39 48 65 61 65 61 58 61 58 58 65 65 68 68 68 68 58 58 58 45 48 48 45 45 42 39 48 42 42 39 32 23
0 0 0 0 3 0 3 3 13 19 39 39 42 48 52 55 58 55 55 55 55 55 58 61 65 65 55 65 61 55 58 52 52 48 48 48 42 35 45 39 35 35 23 16
0 0 0 6 3 0 3 23 29 45 35 35 42 52 48 55 52 48 52 52 58 58 58 68 71 61 58 58 61 55 58 58 55 55 52 45 35 32 35 35 23 23 16 16
3 0 0 3 6 3 3 45 58 58 52 61 61 52 45 39 48 45 48 52 55 58 58 58 61 61 55 55 52 48 55 55 52 45 45 35 35 35 26 26 19 19 19 16
3 0 3 10 19 26 55 61 65 61 61 58 61 58 42 48 48 45 45 32 32 35 42 45 48 48 45 52 52 39 42 39 39 32 29 19 16 13 19 16 16 16 6 10
13 19 35 32 45 48 48 52 55 65 55 58 61 42 42 39 35 35 32 32 32 35 39 39 42 45 39 42 42 32 35 35 32 26 16 19 16 16 10 6 6 6 3 3
16 26 26 23 23 29 35 48 45 48 45 45 45 35 32 35 32 32 23 26 26 23 29 29 29 26 29 19 26 26 26 19 16 6 3 3 0 3 3 3 6 6 3 3
16 16 10 26 26 23 29 32 26 39 32 32 42 32 35 29 29 26 19 19 23 26 26 26 19 13 13 19 13 19 10 10 3 3 0 0 0 0 0 0 0 0 0 0
16 16 10 13 23 23 29 35 32 29 32 23 26 23 10 10 13 10 13 16 13 13 6 6 10 6 6 3 10 10 10 3 0 0 3 0 0 0 0 0 0 0 0 0
13 16 16 16 19 26 26 19 16 19 13 10 3 6 6 13 13 10 10 10 10 6 6 6 6 10 3 3 3 6 3 3 3 3 0 0 0 0 0 0 0 0 0 0
16 13 13 13 10 16 13 13 6 6 3 3 6 0 6 10 13 10 10 10 6 3 3 3 3 0 0 0 0 0 0 0 0 3 0 3 3 0 0 0 0 0 0 0
10 19 13 13 13 0 0 0 0 0 0 0 0 0 0 3 3 6 3 6 3 3 3 3 0 0 0 0 0 0 0 0 0 0 0 0 0 0 0 0 0 0 0 0
10 13 10 6 3 0 0 0 0 0 0 0 0 0 3 3 3 3 3 3 3 3 0 0 0 0 0 0 0 0 0 0 0 0 0 0 0 0 0 0 0 0 0 0
3 6 6 3 3 3 0 0 0 0 0 0 0 3 3 3 0 0 0 0 0 0 0 0 0 0 0 0 0 0 0 0 0 0 0 0 0 0 0 0 0 0 0 0
3 3 3 6 3 0 0 0 0 0 0 0 0 0 0 0 0 0 0 0 0 0 0 0 0 0 0 0 0 0 0 0 0 0 0 0 0 0 0 0 0 0 0 0
0 0 3 10 0 0 0 0 0 0 0 0 0 0 0 0 0 0 0 0 0 0 0 0 0 0 0 0 0 0 0 0 0 0 0 0 0 0 0 0 0 0 0 0
0 0 0 3 0 0 0 0 0 0 0 0 0 0 0 0 0 0 0 0 0 0 0 0 0 0 0 0 0 0 0 0 0 0 0 0 0 0 0 0 0 0 0 0
0 0 0 3 0 0 0 0 0 0 0 0 0 0 0 0 0 0 0 0 0 0 0 0 0 0 0 0 0 0 0 0 0 0 0 0 0 0 0 0 0 0 0 0
0 0 0 0 0 0 0 0 0 0 0 0 0 0 0 0 0 0 0 0 0 0 0 0 0 0 0 0 0 0 0 0 0 0 0 0 0 0 0 0 0 0 0 0
0 0 0 0 0 0 0 0 0 0 0 0 0 0 0 0 0 0 0 0 0 0 0 0 0 0 0 0 0 0 0 0 0 0 0 0 0 0 0 0 0 0 0 0
0 0 0 0 0 0 0 0 0 0 0 0 0 0 0 0 0 0 0 0 0 0 0 0 0 0 0 0 0 0 0 0 0 0 0 0 0 0 0 0 0 0 0 0
0 0 0 0 0 0 0 0 0 0 0 0 0 0 0 0 0 0 0 0 0 0 0 0 0 0 0 0 0 0 0 0 0 0 0 0 0 0 0 0 0 0 0 0
3 3 3 3 0 0 0 0 0 0 0 0 0 0 0 0 0 0 0 0 0 0 0 0 0 0 0 0 0 0 0 0 0 0 0 0 0 0 0 0 0 0 0 0
0 0 0 0 0 0 0 0 0 0 0 0 0 0 0 0 0 0 0 0 0 0 0 0 0 0 0 0 0 0 0 0 0 0 0 0 0 0 0 0 0 0 0 0

GEFSNGP_con_cape1000_162.txt.gz
Probability
0 0 0 0 0 0 0 0 0 0 0 10 10 19 23 26 39 42 42 42 42 39 26 29 26 29 32 35 32 32 26 26 26 26 16 13 13 13 13 10 10 6 6 6
0 0 0 0 0 0 0 0 0 3 3 6 6 19 23 26 35 42 42 45 39 39 26 32 32 32 26 23 26 19 26 26 23 19 16 13 13 13 10 10 10 6 10 3
0 0 0 0 0 0 3 3 0 3 6 10 23 19 19 23 32 35 35 35 32 35 26 26 29 29 19 19 19 16 16 19 16 13 16 13 10 13 13 13 10 10 3 0
0 0 0 0 0 3 6 6 6 10 19 29 16 19 19 26 23 23 32 26 29 32 23 26 26 32 19 16 23 19 16 13 16 13 13 13 10 13 13 10 6 3 0 0
0 0 0 0 0 0 6 13 10 23 26 19 26 19 23 32 26 23 29 29 23 32 26 26 29 23 23 23 19 19 16 16 16 16 16 16 13 13 10 10 3 0 0 0
0 0 0 0 0 0 3 13 13 19 19 19 13 16 32 29 32 29 29 23 29 26 23 16 16 16 13 13 16 16 13 13 13 13 16 13 10 6 3 3 3 0 0 0
0 0 0 0 3 6 3 10 13 16 10 6 13 16 19 23 19 23 19 13 16 16 13 10 6 3 3 10 6 10 13 13 13 10 10 6 6 3 3 3 0 0 0 0
0 0 0 0 6 3 3 6 16 19 10 10 19 23 13 13 16 13 13 13 13 13 13 10 10 6 3 6 3 3 3 6 6 3 3 3 3 3 3 0 0 0 0 0
0 0 0 6 10 6 6 13 10 6 16 13 13 13 16 16 16 13 13 16 16 13 13 10 6 6 6 3 0 0 0 0 0 0 0 0 0 0 0 0 0 0 0 0
0 0 3 6 0 0 3 6 13 13 10 10 13 13 16 13 10 16 16 16 13 10 10 6 6 6 6 3 0 0 0 0 0 0 0 0 0 0 0 0 0 0 0 0
0 0 3 6 3 10 13 16 16 13 6 13 13 13 6 6 10 13 10 10 10 10 10 6 6 3 3 0 0 0 0 0 0 0 0 0 0 0 0 0 0 0 0 0
0 0 0 3 6 6 13 13 10 6 0 3 6 10 10 10 13 6 6 6 6 6 3 0 0 0 0 0 0 0 0 0 0 0 0 0 0 0 0 0 0 0 0 0
0 0 0 0 0 3 6 3 3 3 0 0 3 3 3 6 3 3 3 3 3 3 0 0 0 0 0 0 0 0 0 0 0 0 0 0 0 0 0 0 0 0 0 0
0 0 0 0 0 0 0 0 0 0 0 0 0 0 0 0 0 3 3 3 3 0 0 0 0 0 0 0 0 0 0 0 0 0 0 0 0 0 0 0 0 0 0 0
0 0 0 3 3 3 3 3 0 0 0 0 0 0 0 0 0 0 0 3 3 3 0 0 0 0 0 0 0 0 0 0 0 0 0 0 0 0 0 0 0 0 0 0
0 0 0 3 3 3 3 0 0 0 0 0 0 0 0 0 0 0 0 0 0 3 0 0 0 0 0 0 0 0 0 0 0 0 0 0 0 0 0 0 0 0 0 0
0 0 3 3 3 3 0 0 0 0 0 0 0 0 0 0 0 0 0 0 0 0 0 0 0 0 0 0 0 0 0 0 0 0 0 0 0 0 0 0 0 0 0 0
0 0 0 0 0 0 0 0 0 0 0 0 0 0 0 0 0 0 0 0 0 0 0 0 0 0 0 0 0 0 0 0 0 0 0 0 0 0 0 0 0 0 0 0
0 0 0 0 0 0 0 0 0 0 0 0 0 0 0 0 0 0 0 0 0 0 0 0 0 0 0 0 0 0 0 0 0 0 0 0 0 0 0 0 0 0 0 0
0 0 0 0 0 0 0 0 0 0 0 0 0 0 0 0 0 0 0 0 0 0 0 0 0 0 0 0 0 0 0 0 0 0 0 0 0 0 0 0 0 0 0 0
0 0 0 0 0 0 0 0 0 0 0 0 0 0 0 0 0 0 0 0 0 0 0 0 0 0 0 0 0 0 0 0 0 0 0 0 0 0 0 0 0 0 0 0
0 0 0 0 0 0 0 0 0 0 0 0 0 0 0 0 0 0 0 0 0 0 0 0 0 0 0 0 0 0 0 0 0 0 0 0 0 0 0 0 0 0 0 0
0 0 0 0 0 0 0 0 0 0 0 0 0 0 0 0 0 0 0 0 0 0 0 0 0 0 0 0 0 0 0 0 0 0 0 0 0 0 0 0 0 0 0 0
0 0 0 0 0 0 0 0 0 0 0 0 0 0 0 0 0 0 0 0 0 0 0 0 0 0 0 0 0 0 0 0 0 0 0 0 0 0 0 0 0 0 0 0
0 0 0 0 0 0 0 0 0 0 0 0 0 0 0 0 0 0 0 0 0 0 0 0 0 0 0 0 0 0 0 0 0 0 0 0 0 0 0 0 0 0 0 0
0 0 0 0 0 0 0 0 0 0 0 0 0 0 0 0 0 0 0 0 0 0 0 0 0 0 0 0 0 0 0 0 0 0 0 0 0 0 0 0 0 0 0 0
0 0 0 0 0 0 0 0 0 0 0 0 0 0 0 0 0 0 0 0 0 0 0 0 0 0 0 0 0 0 0 0 0 0 0 0 0 0 0 0 0 0 0 0

GEFSNGP_con_cape1000_168.txt.gz
Probability
0 0 0 0 0 0 0 0 0 0 0 0 3 10 23 26 32 29 29 29 32 29 26 26 19 26 26 26 23 13 10 10 13 6 6 10 6 6 6 6 10 6 6 6
0 0 0 0 0 0 0 0 0 0 0 0 3 13 23 32 48 32 29 26 26 26 23 19 16 16 13 13 19 13 16 10 6 6 10 10 10 6 6 6 6 3 6 6
0 0 0 0 0 3 6 6 0 0 0 3 13 13 23 32 35 32 26 26 23 26 19 13 13 10 19 16 13 13 13 13 10 6 6 6 6 6 6 3 3 3 3 3
0 0 0 0 0 3 6 6 3 3 0 3 10 13 10 13 26 26 29 29 29 29 19 16 13 13 10 16 10 13 13 10 6 6 6 6 6 6 3 3 3 3 3 0
0 0 0 0 0 3 3 6 6 3 3 3 13 13 16 13 13 13 19 16 23 16 16 16 13 6 3 3 6 10 6 6 6 6 6 6 6 3 3 3 3 3 0 0
0 0 0 0 0 0 0 0 3 6 3 10 13 16 13 19 13 16 16 13 10 10 13 10 3 0 0 0 0 10 6 6 6 6 6 6 3 3 3 3 3 0 0 0
0 0 0 0 0 0 0 0 3 3 6 6 3 0 6 19 16 16 13 10 13 10 10 6 3 3 3 3 3 3 3 10 6 6 6 6 3 3 0 0 0 0 0 0
0 0 0 0 0 0 0 0 3 3 0 6 6 13 16 16 13 16 10 6 6 6 6 0 0 3 3 6 3 3 3 6 3 3 3 3 3 0 0 0 0 0 0 0
0 0 0 0 0 0 0 3 3 3 3 6 13 16 16 16 10 10 10 10 6 3 3 0 0 0 0 0 0 0 0 0 0 0 0 0 0 0 0 0 0 0 0 0
0 0 0 0 3 3 6 3 3 6 10 10 16 16 13 6 10 10 10 10 3 3 3 0 0 0 0 0 0 0 0 0 0 0 0 0 0 0 0 0 0 0 0 0
0 0 0 0 3 3 3 3 10 6 6 13 13 10 10 10 10 10 10 6 3 3 0 0 0 0 0 0 0 0 0 0 0 0 0 0 0 0 0 0 0 0 0 0
0 0 0 0 0 3 3 6 6 3 3 6 6 10 3 3 3 6 3 6 6 3 0 0 0 0 0 0 0 0 0 0 0 0 0 0 0 0 0 0 0 0 0 0
0 0 0 0 0 0 0 0 0 0 3 3 0 3 3 3 3 3 3 3 3 0 0 0 0 0 0 0 0 0 0 0 0 0 0 0 0 0 0 0 0 0 0 0
0 0 0 0 0 0 0 0 0 0 0 0 0 3 3 3 3 3 3 0 0 0 0 0 0 0 0 0 0 0 0 0 0 0 0 0 0 0 0 0 0 0 0 0
0 0 0 0 0 0 0 0 0 0 0 0 0 3 3 3 0 0 0 0 0 0 0 0 0 0 0 0 0 0 0 0 0 0 0 0 0 0 0 0 0 0 0 0
0 0 0 0 0 0 0 0 0 0 0 0 0 0 0 0 0 0 0 0 0 0 0 0 0 0 0 0 0 0 0 0 0 0 0 0 0 0 0 0 0 0 0 0
0 0 0 0 0 0 0 0 0 0 0 0 0 0 0 0 0 0 0 0 0 0 0 0 0 0 0 0 0 0 0 0 0 0 0 0 0 0 0 0 0 0 0 0
0 0 0 0 0 0 0 0 0 0 0 0 0 0 0 0 0 0 0 0 0 0 0 0 0 0 0 0 0 0 0 0 0 0 0 0 0 0 0 0 0 0 0 0
0 0 0 0 0 0 0 0 0 0 0 0 0 0 0 0 0 0 0 0 0 0 0 0 0 0 0 0 0 0 0 0 0 0 0 0 0 0 0 0 0 0 0 0
0 0 0 0 0 0 0 0 0 0 0 0 0 0 0 0 0 0 0 0 0 0 0 0 0 0 0 0 0 0 0 0 0 0 0 0 0 0 0 0 0 0 0 0
0 0 0 0 0 0 0 0 0 0 0 0 0 0 0 0 0 0 0 0 0 0 0 0 0 0 0 0 0 0 0 0 0 0 0 0 0 0 0 0 0 0 0 0
0 0 0 0 0 0 0 0 0 0 0 0 0 0 0 0 0 0 0 0 0 0 0 0 0 0 0 0 0 0 0 0 0 0 0 0 0 0 0 0 0 0 0 0
0 0 0 0 0 0 0 0 0 0 0 0 0 0 0 0 0 0 0 0 0 0 0 0 0 0 0 0 0 0 0 0 0 0 0 0 0 0 0 0 0 0 0 0
0 0 0 0 0 0 0 0 0 0 0 0 0 0 0 0 0 0 0 0 0 0 0 0 0 0 0 0 0 0 0 0 0 0 0 0 0 0 0 0 0 0 0 0
0 0 0 0 0 0 0 0 0 0 0 0 0 0 0 0 0 0 0 0 0 0 0 0 0 0 0 0 0 0 0 0 0 0 0 0 0 0 0 0 0 0 0 0
0 0 0 0 0 0 0 0 0 0 0 0 0 0 0 0 0 0 0 0 0 0 0 0 0 0 0 0 0 0 0 0 0 0 0 0 0 0 0 0 0 0 0 0
0 0 0 0 0 0 0 0 0 0 0 0 0 0 0 0 0 0 0 0 0 0 0 0 0 0 0 0 0 0 0 0 0 0 0 0 0 0 0 0 0 0 0 0

GEFSNGP_con_cape1000_174.txt.gz
Probability
0 0 0 0 0 0 0 0 0 0 0 3 19 23 35 55 58 68 71 74 74 74 74 74 71 68 61 61 58 58 48 58 55 42 39 35 35 39 35 39 19 32 32 32
0 0 0 0 0 0 0 0 0 0 0 16 19 29 42 55 61 65 77 74 71 71 65 68 71 65 61 61 58 55 52 45 42 35 32 26 29 29 35 35 35 32 26 19
0 0 0 0 0 0 0 0 0 0 3 19 23 45 52 55 61 65 74 68 65 65 65 61 58 58 61 55 52 48 45 42 35 29 23 23 19 23 32 32 26 23 10 13
0 0 0 0 0 3 3 3 3 6 16 29 35 42 48 58 65 65 58 61 61 61 55 58 58 58 55 52 45 45 42 35 35 26 23 19 19 23 26 23 19 19 13 6
0 0 0 3 6 10 6 6 10 16 26 26 35 39 52 52 61 61 61 68 65 61 55 55 58 55 52 42 39 39 32 32 26 23 23 19 23 23 23 13 13 6 6 6
0 0 0 0 6 13 13 6 23 26 39 32 35 29 42 61 61 61 68 65 58 55 58 55 55 52 42 35 35 35 29 26 23 23 23 26 26 19 13 10 6 6 10 10
0 0 0 10 16 10 3 16 35 42 45 55 55 55 65 65 58 61 58 58 52 48 45 42 42 39 35 32 29 29 32 29 26 23 19 19 19 19 16 10 6 0 0 0
0 0 0 16 19 16 42 55 55 58 55 52 61 58 58 58 55 58 55 52 45 42 39 35 35 32 32 32 32 32 32 29 29 23 19 13 16 16 13 3 3 3 3 3
6 10 35 35 39 45 48 52 58 58 55 58 55 55 58 55 52 52 48 39 35 32 39 35 32 35 35 32 26 26 29 29 29 19 16 13 16 10 10 3 3 3 3 3
26 19 23 29 29 35 42 45 45 55 55 52 48 52 48 45 45 45 45 35 35 35 29 29 32 29 26 26 26 26 23 10 10 0 3 3 6 6 3 0 3 3 3 3
26 19 29 26 26 32 39 39 39 42 48 48 48 39 32 39 39 35 26 29 29 29 23 19 23 19 19 19 16 13 3 3 0 0 0 0 0 0 0 0 0 0 0 0
19 26 26 26 23 32 29 32 32 39 45 39 39 32 29 26 32 32 23 23 23 19 16 16 13 16 13 16 13 6 3 0 0 0 0 0 0 0 0 0 0 0 0 0
10 10 13 16 19 26 32 29 32 29 35 29 29 32 29 23 26 19 23 19 16 16 13 10 13 13 10 10 6 6 0 0 0 0 0 0 0 0 0 0 0 0 0 0
6 6 6 13 16 19 16 13 23 29 26 26 29 29 23 19 19 16 16 13 13 13 13 13 3 6 6 10 6 0 0 0 0 0 0 0 0 0 0 0 0 0 0 0
6 6 10 10 10 10 10 16 23 16 19 23 19 26 16 10 10 10 10 10 10 10 6 0 0 3 0 0 0 0 0 0 0 0 0 0 0 0 0 0 0 0 0 0
10 10 10 6 6 6 10 6 13 16 13 10 13 13 10 6 10 10 10 6 6 3 3 0 0 0 0 0 0 0 0 0 0 0 0 0 0 0 0 0 0 0 0 0
6 6 6 6 3 3 10 6 10 6 6 6 6 6 6 10 10 10 3 3 3 3 3 0 0 0 0 0 0 0 0 0 0 0 0 0 0 0 0 0 0 0 0 0
3 3 3 3 3 3 6 6 3 3 6 10 10 6 3 3 0 3 0 0 3 3 0 0 0 0 0 0 0 0 0 0 0 0 0 0 0 0 0 0 0 0 0 0
0 3 3 3 6 6 10 3 3 6 6 10 3 3 0 0 0 0 0 0 3 0 0 0 0 0 0 0 0 0 0 0 0 0 0 0 0 0 0 0 0 0 0 0
0 0 0 0 0 3 6 3 3 3 3 6 3 0 0 0 0 0 0 0 3 0 0 0 0 0 0 0 0 0 0 0 0 0 0 0 0 0 0 0 0 0 0 0
0 0 0 0 0 3 3 0 0 3 6 3 3 0 0 0 0 0 0 0 0 0 0 0 0 0 0 0 0 0 0 0 0 0 0 0 0 0 0 0 0 0 0 0
0 3 3 3 6 3 3 0 0 0 3 3 0 0 0 0 0 0 0 0 0 0 0 0 0 0 0 0 0 0 0 0 0 0 0 0 0 0 0 0 0 0 0 0
6 3 3 3 6 3 3 3 0 3 3 0 0 0 0 0 0 0 0 0 0 0 0 0 0 0 0 0 0 0 0 0 0 0 0 0 0 0 0 0 0 0 0 0
3 0 0 3 3 0 0 0 0 0 0 0 0 0 0 0 0 0 0 0 0 0 0 0 0 0 0 0 0 0 0 0 0 0 0 0 0 0 0 0 0 0 0 0
0 0 0 0 0 0 0 0 3 0 0 0 0 0 0 0 0 0 0 0 0 0 0 0 0 0 0 0 0 0 0 0 0 0 0 0 0 0 0 0 0 0 0 0
0 0 0 0 0 0 0 0 3 0 0 0 0 0 0 0 0 0 0 0 0 0 0 0 0 0 0 0 0 0 0 0 0 0 0 0 0 0 0 0 0 0 0 0
0 0 0 0 0 0 0 0 3 0 0 0 0 0 0 0 0 0 0 0 0 0 0 0 0 0 0 0 0 0 0 0 0 0 0 0 0 0 0 0 0 0 0 0

GEFSNGP_con_cape1000_180.txt.gz
Probability
0 0 0 0 0 0 0 0 0 0 0 10 19 19 35 45 61 68 71 77 84 84 81 81 81 71 71 71 74 74 71 68 68 68 65 61 55 55 45 39 39 35 35 35
0 0 0 0 0 0 0 0 0 0 6 13 26 42 48 55 65 65 71 74 77 87 84 81 77 74 74 71 74 71 68 65 68 65 55 48 45 39 32 32 35 35 29 32
0 0 0 0 0 0 0 0 0 3 16 23 35 52 61 68 68 71 65 77 84 87 84 77 77 74 71 74 68 61 58 58 61 55 52 42 32 35 35 35 32 29 29 23
0 0 0 0 0 0 0 0 3 19 23 26 42 52 61 71 65 68 71 81 84 81 71 71 71 68 68 61 55 55 58 55 55 45 42 35 29 32 35 35 29 23 16 13
0 0 0 0 0 0 0 10 19 19 29 29 35 55 55 58 71 71 68 81 77 71 68 71 68 58 55 52 48 48 45 42 35 42 35 32 29 29 26 29 26 19 16 13
0 0 0 0 0 0 3 16 23 32 35 32 42 45 45 58 71 74 77 77 74 68 71 68 58 55 55 52 48 45 42 39 39 39 32 29 29 42 29 23 23 19 13 6
0 0 0 0 0 0 0 29 35 45 45 48 68 71 68 74 71 71 74 71 71 68 65 61 58 55 55 48 45 45 42 39 39 39 32 26 29 26 23 19 10 6 3 6
0 0 6 13 6 23 65 68 48 55 58 65 61 65 65 68 68 71 68 65 68 65 61 58 55 52 52 48 45 42 39 39 35 35 26 23 19 23 23 13 6 10 10 3
16 23 55 45 65 74 71 65 58 58 45 52 55 58 58 65 65 65 65 58 58 61 58 52 52 52 45 45 45 39 35 32 32 32 29 19 16 16 13 16 6 3 6 3
58 42 42 45 55 52 55 58 52 45 39 48 52 58 55 65 65 55 55 55 58 55 52 48 45 42 45 42 45 35 32 32 29 19 13 10 13 6 6 3 6 3 3 3
42 55 45 45 48 48 52 58 39 32 35 39 42 48 52 58 55 52 52 58 55 58 48 35 39 35 35 35 39 32 32 26 19 6 3 3 0 0 0 0 0 0 0 0
42 48 48 52 52 48 52 45 45 48 42 35 39 52 52 48 45 48 48 55 52 48 35 35 35 32 32 39 35 29 23 19 6 6 3 3 0 0 0 0 0 0 0 0
35 35 42 39 42 39 42 42 42 45 45 42 39 42 48 39 39 35 42 42 42 39 29 29 32 32 29 26 19 23 16 13 13 6 6 0 0 0 0 0 0 0 0 0
29 42 39 32 32 35 35 32 35 39 39 35 29 32 32 23 23 26 32 39 35 29 26 23 23 23 19 16 16 16 13 10 10 6 3 0 0 0 0 0 0 0 0 0
23 26 35 32 29 29 23 29 26 23 26 19 23 26 26 26 23 26 29 26 23 26 19 16 16 19 16 13 16 13 10 10 6 6 3 0 0 0 0 0 0 0 0 0
13 19 26 26 26 16 13 13 13 13 16 13 19 26 23 23 26 16 26 26 23 23 23 19 16 13 13 10 10 6 6 0 0 0 0 0 0 0 0 0 0 0 0 0
16 16 19 23 13 10 10 13 13 6 10 13 19 26 23 23 19 16 23 23 19 23 19 19 13 6 6 6 6 3 0 0 0 0 0 0 0 0 0 0 0 0 0 0
16 19 19 16 10 10 10 13 13 10 13 13 23 23 23 16 19 19 23 16 10 16 10 10 6 6 6 6 6 0 0 0 0 0 0 0 0 0 0 0 0 0 0 0
13 13 13 13 10 6 10 13 10 13 13 13 10 16 16 16 16 19 13 10 6 3 0 0 0 0 0 0 0 6 0 0 0 0 0 0 0 0 0 0 0 0 0 0
6 10 10 10 6 6 13 13 10 10 10 10 10 13 16 16 16 13 10 6 6 6 6 0 0 0 0 0 0 0 0 0 0 0 0 0 0 0 0 0 0 0 0 0
13 6 16 16 16 13 13 10 10 10 10 6 6 13 16 16 13 10 3 3 3 3 0 0 0 0 0 0 0 0 0 0 0 0 0 0 0 0 0 0 0 0 0 0
10 6 10 10 10 13 10 10 13 13 10 10 10 10 16 16 13 6 3 3 3 0 0 0 0 0 0 0 0 0 0 0 0 0 0 0 0 0 0 0 0 0 0 0
6 3 6 10 13 10 6 6 10 13 13 13 10 13 10 10 3 0 3 3 3 0 0 0 0 0 0 0 0 0 0 0 0 0 0 0 0 0 0 0 0 0 0 0
6 6 3 6 10 6 3 10 6 10 10 6 0 10 10 6 3 0 0 0 0 0 0 0 0 0 0 0 0 0 0 0 0 0 0 0 0 0 0 0 0 0 0 0
3 0 0 3 3 3 6 3 3 3 3 3 0 3 3 3 0 0 0 0 0 0 0 0 0 0 0 0 0 0 0 0 0 0 0 0 0 0 0 0 0 0 0 0
0 0 3 3 6 6 3 3 3 6 6 10 3 3 0 0 0 0 3 0 0 0 0 0 0 0 0 0 0 0 0 0 0 0 0 0 0 0 0 0 0 0 0 0
6 6 6 6 6 3 3 3 0 0 3 6 3 3 0 0 0 0 0 0 0 0 0 0 0 0 0 0 0 0 0 0 0 0 0 0 0 0 0 0 0 0 0 0

GEFSNGP_con_cape1000_186.txt.gz
Probability
0 0 0 0 0 0 0 0 0 0 6 13 19 42 42 32 42 48 48 52 61 52 45 48 52 48 52 52 52 48 45 39 35 32 19 16 16 16 10 10 10 10 10 6
0 0 0 0 0 0 0 0 0 3 10 6 29 42 42 48 55 48 52 55 68 61 48 48 52 52 45 48 42 45 42 39 32 19 19 19 13 13 13 10 6 6 6 3
0 0 0 0 0 0 0 6 0 3 10 13 32 42 42 48 48 58 52 61 68 58 55 52 52 52 48 45 42 42 39 29 23 19 16 16 13 13 10 6 6 6 3 3
0 0 0 0 0 3 6 10 16 16 16 13 32 29 35 39 42 48 48 55 65 58 58 48 48 52 45 45 39 39 35 23 19 19 19 16 13 13 10 10 3 0 0 0
0 0 0 0 3 3 10 10 19 19 23 19 32 39 45 52 45 48 48 58 55 55 58 55 52 48 42 39 39 35 35 26 23 19 19 16 13 10 6 0 0 0 0 0
0 0 0 0 3 3 6 6 16 26 19 29 29 32 45 42 45 55 55 52 55 55 58 52 48 42 42 39 39 35 35 29 26 19 19 16 10 3 0 0 0 0 0 0
0 0 0 3 16 13 3 6 16 19 23 26 26 32 32 48 48 52 48 48 48 52 45 48 42 39 39 39 35 35 32 29 19 19 16 13 13 10 0 0 0 0 0 0
0 0 0 10 19 13 10 10 26 23 32 32 35 35 48 52 35 42 45 45 39 35 42 39 39 42 39 39 35 32 23 16 13 13 16 13 13 3 3 0 0 0 0 0
0 0 6 16 26 13 10 26 35 29 32 42 52 58 55 45 42 39 39 39 35 35 39 35 35 35 32 32 26 19 13 13 6 3 0 3 3 3 3 0 0 0 0 0
10 23 23 19 26 32 26 29 35 35 45 45 55 48 45 39 39 35 32 29 32 35 35 35 35 32 35 26 19 19 6 3 3 0 0 0 0 0 3 3 0 0 0 0
16 13 16 26 23 35 32 39 39 39 45 48 48 45 39 29 19 23 29 26 26 29 29 29 29 29 26 16 13 10 3 0 0 0 0 0 0 0 0 0 0 0 0 0
10 10 16 16 19 26 29 32 32 42 42 39 42 35 29 23 19 23 19 26 29 26 26 29 29 23 19 13 6 3 0 0 0 0 0 0 0 0 0 0 0 0 0 0
3 6 3 6 16 19 23 23 26 26 26 26 23 32 29 23 19 19 19 23 19 23 23 26 19 19 16 3 3 0 0 0 0 0 0 0 0 0 0 0 0 0 0 0
3 3 10 10 10 16 13 13 16 16 19 23 26 23 16 16 13 13 19 16 16 16 19 19 16 13 10 6 0 0 0 0 0 0 0 0 0 0 0 0 0 0 0 0
3 3 3 3 3 6 6 13 13 19 16 19 16 16 16 19 13 13 10 10 10 10 13 13 13 10 10 3 3 0 0 0 0 0 0 0 0 0 0 0 0 0 0 0
3 3 0 0 0 3 3 10 6 3 6 6 6 10 13 10 13 6 6 6 3 3 10 10 13 13 3 3 3 0 0 0 0 0 0 0 0 0 0 0 0 0 0 0
0 0 0 3 0 3 3 6 3 0 0 6 6 10 6 10 13 10 6 3 3 3 3 6 6 6 3 3 0 0 0 0 0 0 0 0 0 0 0 0 0 0 0 0
0 0 0 0 0 3 3 0 0 0 0 3 3 6 13 10 10 6 3 3 3 0 0 0 0 0 0 0 0 0 0 0 0 0 0 0 0 0 0 0 0 0 0 0
0 0 0 3 3 3 0 0 0 0 3 3 3 6 6 6 6 6 3 0 0 0 0 0 0 0 0 0 0 0 0 0 0 0 0 0 0 0 0 0 0 0 0 0
0 0 0 0 3 3 0 0 0 0 0 3 3 3 3 6 3 3 3 3 0 0 0 0 0 0 0 0 0 0 0 0 0 0 0 0 0 0 0 0 0 0 0 0
0 0 0 3 3 3 0 0 0 0 0 0 0 0 6 0 0 0 0 0 0 0 0 0 0 0 0 0 0 0 0 0 0 0 0 0 0 0 0 0 0 0 0 0
0 0 0 3 3 0 0 0 0 0 0 0 0 0 3 0 0 0 0 0 0 0 0 0 0 0 0 0 0 0 0 0 0 0 0 0 0 0 0 0 0 0 0 0
0 0 0 0 0 0 0 0 0 0 0 0 0 0 3 0 0 0 0 0 0 0 0 0 0 0 0 0 0 0 0 0 0 0 0 0 0 0 0 0 0 0 0 0
0 0 0 0 0 0 0 0 0 0 0 0 0 0 0 0 0 0 0 0 0 0 0 0 0 0 0 0 0 0 0 0 0 0 0 0 0 0 0 0 0 0 0 0
0 0 0 0 0 0 0 0 0 0 0 0 0 0 0 0 0 0 0 0 0 0 0 0 0 0 0 0 0 0 0 0 0 0 0 0 0 0 0 0 0 0 0 0
0 0 0 0 0 0 0 0 0 0 0 0 0 0 0 0 0 0 0 0 0 0 0 0 0 0 0 0 0 0 0 0 0 0 0 0 0 0 0 0 0 0 0 0
0 0 0 0 0 0 0 0 0 0 0 0 0 0 0 0 0 0 0 0 0 0 0 0 0 0 0 0 0 0 0 0 0 0 0 0 0 0 0 0 0 0 0 0